Temp
86 87 87 89 88 86 77 76 79 89 88 88 86 88 87 87 87 89 92 82 81 81 81 81 81 81 80 81 80 80 80 80 80 80 80 80 80 79 80 80 80 79 79
85 85 81 84 83 85 82 74 85 81 90 90 86 86 86 85 86 85 89 89 81 81 81 82 81 81 81 81 80 81 81 80 80 80 80 79 79 79 79 79 79 79 79
87 82 86 81 79 76 76 71 75 89 81 84 89 88 89 85 85 87 83 88 84 81 81 81 81 81 81 81 81 80 80 80 80 79 79 79 78 78 78 78 79 79 78
86 84 87 87 84 72 70 70 80 87 85 80 80 81 87 89 89 85 84 89 91 86 81 81 80 80 80 80 78 79 79 79 79 78 79 78 78 78 77 77 78 78 78
89 88 90 88 86 83 79 78 82 80 76 86 88 82 82 86 88 89 85 87 86 87 86 82 80 78 80 79 77 78 79 79 78 78 79 78 78 78 77 77 77 77 78
88 84 84 87 83 77 79 83 80 87 88 89 91 88 83 88 89 89 86 83 82 81 88 86 79 75 78 79 78 77 79 79 79 78 78 78 78 77 77 77 76 76 77
87 85 82 82 82 80 86 85 81 86 88 89 81 85 88 90 86 87 87 86 82 85 86 83 77 79 79 78 78 78 78 79 79 79 78 77 77 77 77 77 76 76 76
86 83 81 80 81 79 81 81 81 78 80 80 81 83 81 87 90 89 86 82 85 84 85 84 83 83 76 75 78 78 78 79 79 80 78 77 76 76 75 75 76 76 76
86 82 82 81 79 78 77 80 79 78 75 77 80 83 80 80 86 82 83 85 85 81 81 82 79 85 81 76 77 80 79 77 79 80 79 78 76 75 75 75 75 75 75
84 83 81 82 80 79 78 78 79 80 76 73 76 85 85 84 77 75 79 78 82 80 80 76 75 77 82 79 81 81 79 77 78 79 80 79 78 76 76 76 76 75 74
86 83 83 81 80 79 80 78 79 77 79 76 76 76 81 85 82 77 73 75 82 86 83 79 77 81 84 89 92 88 78 77 76 77 78 78 79 78 78 77 76 76 74
85 83 83 81 78 78 78 79 79 78 78 80 73 76 73 79 80 77 71 74 78 77 82 75 79 82 81 81 79 83 80 75 74 75 75 75 76 78 78 78 77 77 76
83 78 81 81 80 78 79 79 78 78 77 77 74 76 76 81 81 75 75 76 77 77 77 80 85 86 91 83 76 79 79 75 73 72 72 72 74 75 76 76 77 77 77
80 80 77 82 81 81 81 81 82 81 80 79 76 77 77 79 87 75 77 73 72 78 82 80 81 83 85 77 77 78 75 70 69 69 68 68 69 70 72 73 74 74 75
81 80 78 78 82 81 81 81 81 80 76 76 75 73 76 78 86 88 84 75 73 71 74 76 75 74 73 78 74 74 70 67 67 67 67 67 67 68 69 70 70 69 69
77 76 78 80 76 80 81 80 79 79 79 76 75 76 77 78 80 80 83 84 77 75 71 70 71 73 71 70 70 69 67 66 65 65 64 64 65 66 67 68 68 68 68
76 75 75 76 77 78 78 78 77 78 77 76 76 75 76 79 78 78 78 78 75 73 69 70 71 72 67 67 66 66 66 64 63 64 63 62 62 62 62 62 63 63 63
77 76 75 75 75 75 77 76 73 73 72 71 72 73 74 76 76 76 75 75 73 74 71 70 71 65 62 61 61 60 61 62 61 63 62 61 60 59 59 59 58 58 58
78 77 76 74 75 75 74 74 72 70 69 68 68 67 68 71 68 69 70 70 71 71 70 68 65 64 61 61 59 60 59 58 60 62 61 60 60 59 58 57 56 54 54
78 76 76 76 76 75 74 73 72 70 69 67 65 66 67 66 67 67 66 66 67 66 65 63 62 62 62 61 61 59 56 57 56 59 60 60 60 60 59 58 57 56 54
78 77 75 76 78 77 74 74 72 71 69 67 66 63 62 63 62 63 66 65 67 65 64 63 62 60 60 60 59 59 56 56 56 57 56 56 56 55 55 57 57 56 54
75 76 76 74 76 76 60 63 70 72 70 70 69 69 70 68 63 61 62 62 65 66 64 61 60 58 59 60 61 58 56 55 52 58 58 55 57 54 55 54 57 56 55
73 74 74 75 74 71 59 60 65 73 72 71 71 71 72 71 69 69 63 64 63 63 64 66 62 62 61 60 62 60 59 59 56 58 58 52 54 52 55 56 56 55 54
71 72 72 71 72 68 57 57 61 75 73 72 72 72 71 70 65 71 70 67 66 65 68 70 66 66 66 67 64 64 63 60 59 60 60 52 53 51 53 55 56 54 54
71 71 72 71 71 69 56 58 63 75 72 71 69 65 71 69 56 58 70 67 66 65 59 57 58 58 58 58 62 69 69 67 65 63 63 62 59 58 59 60 60 55 53
71 71 71 70 63 69 52 54 60 75 72 72 70 67 54 58 53 55 70 69 67 68 69 68 66 63 66 64 63 69 72 68 65 61 66 63 62 62 58 65 64 62 60
MSLP
1015.87 1015.99 1015.90 1015.27 1014.97 1016.29 1016.83 1016.17 1015.77 1014.90 1015.10 1016.03 1016.82 1016.99 1017.42 1017.59 1017.90 1017.83 1017.29 1017.97 1018.35 1018.85 1019.41 1019.86 1020.16 1020.45 1020.67 1020.98 1021.27 1021.49 1021.74 1021.85 1022.07 1022.19 1022.30 1022.42 1022.49 1022.69 1022.85 1023.02 1023.13 1023.28 1023.47
1016.01 1016.08 1016.38 1015.65 1015.09 1015.99 1017.55 1017.07 1015.65 1015.34 1014.66 1015.17 1016.21 1016.68 1017.11 1017.43 1017.58 1017.80 1017.58 1017.56 1018.00 1018.32 1018.83 1019.37 1019.66 1019.91 1020.20 1020.60 1020.85 1021.15 1021.33 1021.54 1021.72 1021.94 1022.05 1022.15 1022.31 1022.45 1022.62 1022.79 1022.94 1023.09 1023.30
1015.49 1016.04 1015.51 1015.78 1015.57 1015.12 1016.10 1015.37 1014.63 1014.70 1015.04 1015.11 1015.35 1015.69 1016.29 1016.76 1017.18 1017.21 1017.60 1017.35 1017.48 1017.76 1018.02 1018.43 1018.91 1019.23 1019.44 1019.95 1020.38 1020.77 1020.93 1021.14 1021.37 1021.61 1021.66 1021.86 1022.07 1022.22 1022.37 1022.51 1022.64 1022.81 1023.01
1015.37 1015.55 1015.15 1015.03 1015.27 1014.64 1014.41 1016.93 1016.61 1015.38 1015.20 1015.36 1015.53 1015.52 1015.79 1015.98 1016.10 1016.85 1017.20 1016.78 1016.53 1016.96 1017.32 1017.68 1017.92 1018.55 1018.99 1019.35 1019.82 1020.23 1020.55 1020.77 1020.98 1021.20 1021.31 1021.52 1021.71 1021.84 1022.03 1022.19 1022.38 1022.55 1022.70
1014.68 1014.88 1014.43 1014.52 1014.89 1014.86 1015.33 1015.78 1015.20 1014.75 1015.54 1015.35 1015.05 1015.32 1015.37 1015.66 1015.78 1015.92 1016.53 1016.50 1016.54 1016.38 1016.46 1016.73 1017.91 1018.65 1019.32 1019.36 1019.20 1019.76 1019.96 1020.21 1020.50 1020.67 1020.86 1021.04 1021.21 1021.34 1021.58 1021.76 1022.02 1022.22 1022.34
1014.45 1014.87 1014.87 1014.49 1014.69 1015.47 1015.12 1014.74 1014.49 1014.40 1014.44 1014.24 1014.29 1014.51 1014.89 1014.88 1015.16 1015.38 1016.00 1016.35 1016.48 1016.57 1016.04 1016.22 1017.64 1017.88 1018.30 1019.13 1018.54 1018.97 1019.32 1019.70 1019.83 1020.15 1020.44 1020.55 1020.79 1020.87 1021.09 1021.27 1021.50 1021.79 1021.87
1014.09 1014.33 1014.30 1014.48 1014.54 1014.83 1014.06 1013.77 1013.97 1013.93 1014.06 1014.13 1014.88 1014.60 1014.29 1014.12 1014.52 1015.02 1015.22 1015.64 1015.86 1015.77 1015.92 1016.06 1017.22 1017.59 1017.96 1018.25 1017.98 1018.30 1018.63 1018.98 1019.22 1019.46 1019.57 1019.89 1020.23 1020.42 1020.55 1020.74 1020.94 1021.15 1021.28
1014.05 1014.28 1014.44 1014.34 1014.44 1014.45 1014.41 1014.26 1014.36 1014.61 1014.88 1015.10 1014.90 1014.44 1013.47 1012.96 1012.96 1013.69 1014.64 1015.08 1015.39 1015.25 1015.42 1015.61 1016.09 1016.53 1017.17 1017.32 1017.64 1017.86 1018.14 1018.32 1018.53 1018.65 1018.93 1019.18 1019.38 1019.70 1019.93 1020.19 1020.29 1020.42 1020.60
1013.76 1013.90 1013.81 1013.85 1014.09 1014.26 1014.10 1014.13 1014.29 1014.54 1014.71 1014.88 1014.88 1014.03 1013.15 1012.64 1012.46 1012.95 1014.26 1014.46 1014.55 1015.18 1015.30 1015.55 1015.86 1015.83 1016.26 1016.80 1017.08 1017.09 1017.33 1017.65 1017.75 1017.92 1018.15 1018.47 1018.72 1018.96 1019.22 1019.46 1019.65 1019.74 1019.90
1013.49 1013.54 1013.56 1013.44 1013.61 1013.73 1013.76 1013.85 1014.02 1014.14 1014.54 1014.71 1014.83 1014.24 1013.77 1013.54 1013.67 1013.89 1014.20 1014.52 1014.61 1015.03 1015.29 1015.54 1015.82 1015.71 1015.65 1015.91 1015.94 1016.14 1016.39 1016.64 1016.81 1017.11 1017.33 1017.61 1017.85 1018.15 1018.46 1018.65 1018.82 1019.05 1019.32
1012.65 1012.99 1013.09 1013.16 1013.27 1013.35 1013.29 1013.57 1013.67 1013.90 1013.99 1014.16 1014.47 1014.29 1013.78 1013.72 1014.18 1014.60 1014.52 1014.60 1014.35 1014.31 1014.49 1014.54 1014.77 1014.95 1014.06 1013.83 1013.85 1014.38 1015.06 1015.67 1016.22 1016.53 1016.72 1016.94 1017.11 1017.33 1017.61 1017.87 1018.06 1018.25 1018.55
1012.85 1013.14 1012.87 1012.84 1012.99 1013.07 1013.14 1013.11 1013.35 1013.61 1013.88 1014.03 1014.53 1014.52 1014.47 1013.92 1013.69 1014.42 1014.91 1014.92 1014.70 1014.41 1013.70 1013.83 1013.43 1013.25 1013.60 1013.40 1013.48 1013.71 1014.60 1015.28 1016.03 1016.24 1016.45 1016.57 1016.60 1016.69 1016.85 1017.01 1017.21 1017.43 1017.65
1013.19 1013.45 1013.11 1012.86 1012.80 1012.91 1012.95 1013.02 1013.13 1013.35 1013.73 1014.02 1014.30 1014.34 1014.28 1013.76 1013.60 1014.30 1014.69 1014.76 1014.66 1014.63 1014.08 1013.32 1012.83 1012.73 1012.77 1012.89 1014.09 1014.37 1015.08 1015.61 1015.90 1016.07 1016.23 1016.31 1016.33 1016.31 1016.28 1016.33 1016.52 1016.76 1016.93
1013.71 1013.66 1013.38 1012.95 1012.69 1012.64 1012.66 1012.72 1012.81 1012.96 1013.15 1013.61 1014.02 1013.98 1014.03 1013.86 1013.01 1013.85 1014.35 1014.76 1014.83 1014.45 1014.27 1014.33 1014.16 1013.67 1013.70 1014.41 1015.04 1015.13 1015.97 1016.38 1016.38 1016.42 1016.40 1016.35 1016.23 1016.16 1016.09 1016.08 1016.16 1016.29 1016.42
1014.05 1013.88 1013.61 1013.22 1012.84 1012.78 1012.78 1012.66 1012.62 1012.78 1013.20 1013.54 1013.70 1013.86 1013.86 1013.84 1013.27 1012.96 1013.38 1014.40 1014.62 1014.69 1014.45 1014.86 1015.13 1015.39 1015.42 1015.35 1016.41 1016.56 1016.81 1017.11 1016.91 1016.77 1016.55 1016.44 1016.22 1016.14 1016.03 1015.98 1016.03 1016.23 1016.30
1014.49 1014.32 1014.12 1013.62 1013.46 1013.07 1012.84 1012.55 1012.73 1012.78 1012.99 1013.30 1013.56 1013.69 1013.79 1013.91 1013.78 1013.89 1013.78 1013.67 1014.53 1014.79 1014.92 1015.11 1015.40 1015.84 1016.01 1016.38 1017.04 1017.31 1017.46 1017.43 1017.42 1017.21 1016.84 1016.46 1016.46 1016.41 1016.21 1016.16 1016.21 1016.26 1016.43
1014.76 1014.68 1014.63 1014.29 1013.87 1013.55 1013.28 1013.08 1013.25 1013.24 1013.50 1013.54 1013.86 1014.03 1014.05 1013.95 1013.95 1013.99 1014.12 1014.35 1014.55 1014.97 1015.13 1015.25 1015.60 1016.10 1016.69 1017.17 1017.75 1018.07 1018.16 1017.79 1017.71 1017.61 1017.21 1017.11 1017.10 1017.07 1017.00 1017.04 1016.87 1016.91 1017.09
1015.01 1014.96 1015.03 1014.76 1014.48 1014.26 1014.03 1013.93 1014.13 1014.30 1014.30 1014.44 1014.55 1014.49 1014.51 1014.35 1014.27 1014.38 1014.47 1014.52 1014.78 1014.90 1015.16 1015.34 1015.89 1016.88 1017.60 1018.15 1018.44 1018.46 1018.70 1018.35 1018.30 1018.02 1017.97 1017.78 1017.80 1017.82 1017.59 1017.78 1017.71 1017.64 1017.92
1015.17 1015.12 1015.26 1015.21 1014.95 1014.83 1014.87 1014.85 1014.97 1015.19 1015.32 1015.46 1015.51 1015.63 1015.46 1015.19 1015.41 1015.37 1015.36 1015.23 1015.25 1015.19 1015.41 1015.71 1016.25 1016.97 1018.02 1018.43 1018.75 1018.89 1018.98 1019.18 1019.03 1018.86 1018.89 1018.73 1018.86 1018.80 1018.81 1018.69 1018.75 1018.71 1018.55
1015.28 1015.37 1015.43 1015.46 1015.40 1015.45 1015.47 1015.49 1015.50 1015.72 1015.99 1016.20 1016.37 1016.44 1016.35 1016.26 1016.21 1016.08 1016.04 1015.92 1015.83 1015.85 1015.97 1016.08 1016.81 1017.32 1017.75 1018.43 1018.68 1018.98 1019.36 1019.48 1019.71 1019.74 1019.73 1019.71 1019.63 1019.47 1019.68 1019.63 1019.69 1019.76 1019.63
1015.66 1015.67 1015.80 1015.75 1015.77 1015.96 1016.31 1016.03 1016.04 1016.14 1016.39 1016.66 1016.93 1017.13 1017.19 1017.19 1017.14 1016.98 1016.64 1016.80 1016.55 1016.57 1016.65 1016.74 1017.27 1017.86 1018.20 1018.56 1018.63 1019.00 1019.51 1019.91 1020.22 1020.23 1020.30 1020.40 1020.37 1020.48 1020.64 1020.62 1020.64 1020.60 1020.57
1016.12 1016.15 1016.09 1016.24 1016.37 1016.83 1017.28 1016.94 1016.61 1016.63 1016.70 1016.66 1016.75 1016.99 1017.20 1017.32 1017.51 1017.44 1017.41 1017.44 1017.38 1017.23 1017.35 1017.74 1018.12 1018.39 1018.76 1018.80 1018.89 1019.14 1019.56 1019.84 1020.30 1020.59 1020.56 1020.80 1020.80 1021.08 1021.25 1021.29 1021.28 1021.20 1021.05
1016.43 1016.43 1016.68 1016.85 1017.15 1017.72 1018.00 1017.77 1017.33 1017.07 1017.08 1017.18 1017.25 1017.17 1017.18 1017.61 1017.58 1017.69 1017.67 1017.67 1017.89 1017.93 1017.90 1017.88 1018.27 1018.67 1018.97 1019.09 1018.87 1019.18 1019.47 1019.72 1020.21 1020.65 1020.60 1021.09 1021.51 1021.63 1021.66 1021.72 1021.76 1021.61 1021.58
1016.77 1016.83 1017.10 1017.41 1017.82 1018.43 1018.59 1018.41 1018.00 1017.48 1017.44 1017.49 1017.61 1017.75 1017.83 1018.10 1018.42 1018.05 1018.21 1018.47 1018.77 1018.89 1018.67 1018.51 1018.97 1019.18 1019.20 1018.96 1019.03 1019.02 1019.33 1019.84 1020.36 1020.58 1020.48 1020.92 1021.63 1021.91 1022.04 1021.88 1021.86 1021.90 1021.96
1017.03 1017.17 1017.42 1017.80 1018.06 1018.77 1019.05 1018.96 1018.47 1017.99 1018.17 1018.30 1018.70 1018.93 1018.68 1018.95 1019.15 1018.82 1018.68 1018.86 1019.07 1019.45 1020.10 1019.99 1019.95 1019.89 1019.71 1019.58 1019.39 1018.94 1018.53 1018.49 1018.87 1019.32 1019.86 1019.96 1020.96 1021.25 1021.48 1021.42 1021.64 1022.10 1022.25
1017.18 1017.37 1017.74 1018.34 1018.77 1018.93 1019.42 1019.30 1018.99 1018.19 1018.32 1018.65 1019.09 1019.62 1020.00 1020.07 1019.82 1019.37 1018.96 1019.06 1019.12 1019.13 1019.22 1019.58 1019.80 1019.85 1019.43 1019.58 1019.37 1019.01 1018.47 1017.94 1018.36 1019.03 1019.42 1019.66 1019.86 1020.10 1020.18 1020.19 1020.47 1021.10 1021.52
Wind_Speed
4 4 3 6 5 3 4 15 6 8 8 8 8 8 9 10 9 6 5 16 15 15 13 13 15 15 14 13 13 13 13 13 13 12 13 13 12 11 12 11 11 11 10
7 7 4 4 6 4 7 9 6 5 7 9 9 9 9 8 10 11 6 8 16 17 17 15 16 17 16 15 14 14 15 16 15 14 14 13 12 12 12 12 13 12 12
8 9 8 4 7 3 4 6 11 4 5 3 7 10 9 8 8 9 6 10 10 17 19 20 17 18 17 13 14 15 15 15 15 15 15 14 13 13 13 13 14 14 13
10 7 8 8 5 4 1 7 14 5 5 5 5 4 6 9 7 8 8 8 8 9 16 22 22 21 18 14 10 13 15 16 16 15 15 15 14 14 15 15 15 15 14
12 11 10 6 8 6 8 10 11 4 5 8 7 5 6 6 9 8 11 11 11 10 9 20 21 21 19 17 16 18 19 16 17 16 17 17 16 16 16 16 16 16 16
11 8 8 10 7 8 11 12 10 10 11 11 9 7 4 9 8 7 9 7 7 9 12 8 10 9 22 22 22 22 23 20 18 17 16 15 16 16 16 15 16 17 18
11 8 8 7 8 9 12 6 7 8 9 7 3 7 10 10 9 8 7 10 9 12 13 9 9 9 12 25 22 23 25 22 19 19 19 19 15 14 16 15 17 20 18
9 9 10 9 10 9 10 10 7 5 7 5 8 10 10 11 11 11 8 7 10 8 9 8 9 11 7 7 14 23 24 21 20 20 20 21 19 18 16 16 17 18 19
7 6 9 8 9 8 8 11 8 10 7 7 11 8 6 7 5 4 8 8 8 6 7 6 7 10 10 7 11 16 24 23 22 21 21 20 21 21 20 21 20 16 17
3 7 7 9 10 6 10 9 9 10 8 7 4 9 9 8 3 3 3 6 5 5 7 4 5 7 9 8 15 16 16 20 21 21 21 21 21 22 22 20 20 15 11
5 5 5 7 9 7 8 10 10 10 8 6 6 5 8 9 7 4 4 2 2 6 9 9 12 11 12 11 10 10 17 16 16 16 16 20 21 21 21 21 21 19 18
7 7 8 6 5 7 8 7 9 10 8 8 4 6 5 6 7 7 4 3 4 4 5 4 2 8 2 4 14 15 12 12 11 10 9 11 14 18 21 22 23 23 23
8 8 8 6 4 6 7 7 6 8 9 8 7 7 6 10 3 3 5 6 4 3 4 6 6 4 1 4 11 14 10 2 3 4 7 8 10 13 16 20 22 22 21
6 9 7 7 5 3 5 5 5 6 7 7 10 9 7 8 5 5 5 4 4 7 5 5 6 7 8 9 15 12 10 14 12 10 8 6 7 9 11 11 16 19 19
8 10 8 7 7 4 4 5 5 6 4 7 8 7 7 6 8 7 2 5 5 6 5 1 1 7 6 9 12 10 9 16 14 11 10 10 10 8 7 8 7 4 5
8 7 10 9 9 7 4 3 3 3 4 2 3 5 6 5 6 4 7 6 5 6 5 3 2 4 4 7 9 8 9 12 16 15 16 16 14 12 11 12 12 11 7
6 7 7 8 8 9 9 8 8 7 7 5 4 3 2 4 4 4 3 3 3 4 5 1 2 4 8 8 8 8 7 8 8 17 19 19 19 19 19 19 19 20 19
6 6 6 7 8 9 10 10 9 9 9 9 9 3 4 3 4 4 2 3 2 2 1 4 2 4 6 6 5 7 5 6 8 18 19 21 20 20 22 21 21 22 20
7 7 8 7 8 9 9 10 11 10 11 11 10 9 9 7 7 6 6 4 2 3 3 2 3 3 2 2 4 5 5 6 7 15 19 22 21 21 20 21 21 21 20
8 8 7 6 7 9 9 9 10 10 10 11 10 10 10 9 8 7 6 6 6 6 5 6 4 3 3 3 2 3 4 5 5 5 12 14 16 21 18 19 18 18 16
7 8 7 6 7 9 9 8 9 10 10 10 10 10 11 13 16 12 5 6 6 5 4 4 5 3 3 2 2 2 3 4 5 3 5 6 6 6 8 12 13 16 16
5 6 7 7 8 8 12 12 7 8 8 8 9 9 8 11 14 14 15 15 10 4 5 3 3 4 3 3 2 3 3 2 2 0 2 5 4 5 5 5 13 14 14
5 5 6 6 8 9 11 11 8 6 7 8 8 7 9 7 7 10 11 14 14 12 12 8 8 6 4 3 2 5 2 3 3 2 2 4 3 4 3 4 7 10 10
4 4 5 5 7 6 10 13 17 8 8 9 9 9 9 9 11 9 11 12 13 14 12 9 9 8 7 5 5 4 6 7 4 2 1 2 1 2 2 2 5 6 7
4 4 5 5 6 7 11 13 13 7 8 10 10 13 8 9 13 14 9 10 11 11 9 11 10 8 7 9 6 6 5 4 4 5 6 4 4 4 3 3 4 5 4
6 4 7 7 8 7 12 13 12 2 5 7 8 9 16 10 10 13 5 5 6 6 6 7 6 4 4 5 9 8 8 2 3 3 4 1 5 5 3 4 5 7 7
Wind_Direction
227 229 289 265 251 270 98 292 267 178 175 192 200 219 218 218 265 268 290 161 168 182 202 203 198 195 217 227 227 221 221 218 223 219 221 216 214 211 217 211 216 214 207
220 245 258 286 273 248 3 296 217 199 191 189 193 214 225 230 214 218 234 222 181 189 195 204 203 201 215 224 229 229 225 229 224 220 225 224 216 216 221 224 218 217 209
216 242 256 227 259 270 14 9 271 205 170 249 225 187 212 227 218 244 226 260 189 192 198 194 200 199 207 222 235 237 232 230 231 224 224 224 221 216 219 227 225 218 220
232 237 246 255 216 313 27 258 270 227 262 291 221 211 192 240 229 225 231 246 241 196 200 198 194 193 203 207 232 255 246 241 233 229 225 227 226 222 217 223 231 228 229
234 230 256 220 220 225 230 245 246 168 194 246 266 221 197 204 233 231 228 233 251 270 194 200 197 193 200 202 216 239 251 244 238 230 226 229 228 227 223 222 227 229 229
232 241 246 252 216 210 233 215 224 230 222 228 229 236 226 216 217 228 234 240 237 254 266 209 181 179 223 211 210 221 238 244 235 232 229 235 237 236 241 231 220 240 232
272 248 238 230 235 246 254 234 229 227 257 268 321 267 257 229 210 212 220 238 211 226 236 251 163 195 205 214 215 222 228 233 237 227 220 226 236 241 247 240 226 226 235
265 257 259 260 253 239 245 262 250 235 244 240 235 241 250 238 210 191 205 219 223 231 240 231 239 204 190 196 232 228 232 232 235 231 226 218 221 226 236 254 245 234 227
285 285 283 263 254 243 239 232 235 219 227 230 232 247 251 249 278 113 188 228 223 196 236 230 227 231 214 213 216 230 223 231 234 231 230 222 219 223 228 230 242 239 233
281 280 270 266 265 244 243 233 228 222 210 218 213 250 266 313 305 281 339 219 229 215 220 218 265 260 233 206 220 217 215 216 223 226 232 231 227 224 226 230 230 219 229
238 264 306 269 264 251 246 233 226 223 216 242 220 255 251 227 208 262 271 259 234 236 219 188 195 222 227 213 215 219 200 201 213 228 234 238 236 233 231 230 225 220 226
29 352 323 311 286 259 252 249 232 219 224 223 224 244 256 240 212 223 234 287 234 279 300 340 155 196 230 232 255 127 152 173 196 220 240 253 247 238 239 235 228 228 231
356 332 329 318 325 282 255 250 232 208 209 213 221 231 227 256 197 186 211 234 243 321 315 318 8 33 330 30 45 24 62 58 290 263 263 263 262 261 252 238 231 233 241
348 342 320 331 324 315 245 214 220 236 215 217 224 233 230 248 237 178 204 229 262 245 270 272 15 3 31 33 19 353 59 31 34 28 13 337 311 291 280 273 249 245 246
347 360 346 348 349 336 267 220 221 208 205 216 220 226 229 240 262 277 236 184 221 250 254 26 61 34 38 43 24 34 61 38 35 37 39 21 14 357 322 296 279 278 266
12 3 359 355 9 357 352 285 229 247 218 204 201 206 218 238 245 238 264 249 192 240 248 215 83 97 71 71 48 49 54 53 46 51 53 50 44 39 45 55 53 47 33
20 25 22 13 20 27 35 60 59 46 64 65 57 358 291 239 252 268 254 270 258 234 252 277 84 75 54 70 58 48 43 63 51 54 61 62 63 62 62 63 65 63 61
37 47 30 29 38 44 42 58 60 53 56 50 38 23 16 313 317 315 319 295 280 274 270 268 115 82 71 65 75 71 48 31 58 60 67 70 69 70 70 69 71 71 70
58 51 54 37 41 54 64 68 74 65 57 54 51 47 32 44 46 40 45 30 25 54 64 61 79 71 107 114 79 62 61 52 45 62 62 66 65 66 68 70 69 65 63
60 56 37 43 52 61 61 60 74 76 72 66 60 54 48 41 40 51 51 48 71 76 77 87 82 87 91 107 115 101 68 49 60 50 63 66 66 64 60 65 66 69 72
50 61 46 25 43 55 31 58 71 78 84 83 76 66 56 58 55 51 51 35 54 61 59 71 72 60 49 58 58 96 97 90 58 40 61 49 54 54 50 49 60 66 68
71 59 62 51 48 56 359 7 38 76 75 76 84 93 99 91 73 69 73 65 50 60 77 79 81 82 74 50 47 107 127 168 101 303 77 69 63 64 60 54 73 77 80
95 78 74 56 66 64 6 357 4 71 82 76 77 86 92 95 100 99 106 90 68 53 53 67 78 56 59 17 27 129 86 74 86 114 120 65 56 57 62 94 92 90 88
118 105 86 81 78 67 3 348 343 70 78 81 80 73 73 76 37 65 83 77 67 52 45 63 64 63 54 69 99 108 109 109 115 156 172 99 68 46 21 53 104 103 96
146 127 103 96 90 75 13 358 338 91 72 64 61 34 70 76 9 3 89 91 93 95 84 85 93 93 61 31 1 232 180 197 154 152 195 136 158 151 170 144 149 161 146
152 140 109 76 53 90 30 0 351 143 112 106 100 76 46 33 16 6 72 92 90 81 91 123 131 141 99 80 35 14 341 39 127 128 76 160 171 168 178 164 163 163 187